User: anonymous   Login
Location: Spruce Knob
(38.6995°N, 79.5330°W)
Time: 09:50:08
(UTC-04:00)
Language:

POLYITAN 1 - Orbit

View from above orbital plane
View from above orbital plane
View from above satellite
View from above satellite

Ground track
Ground track

The orbit data is extracted from the following two-line orbital elements,

1 40042U 14033AJ  23079.73796962  .00009806  00000-0  93782-3 0  9996
2 40042  98.0004  26.6873 0011853 210.8504 149.2020 14.93385644474834
Epoch (UTC): 20 March 2023 17:42:40
Eccentricity: 0.0011853
inclination: 98.0004°
perigee height: 579 km
apogee height: 595 km
right ascension of ascending node: 26.6873°
argument of perigee: 210.8504°
revolutions per day: 14.93385644
mean anomaly at epoch: 149.2020°
orbit number at epoch: 47483

The dashed part of the orbit path shows where the satellite is in the earth's shadow,  

DLR